Simultaneous Nadir Overpasses (SNOs) Predictions

Prediction of SNOs between NOAA-19 and TERRA Satellite Orbit:

Table of predicted SNOs for the next 14.0 days since TLE Epoch: 3/25/2012
Index Date (NOAA-19) Time (NOAA-19) NOAA-19 Lat,Lon Date (TERRA) Time (TERRA) TERRA Lat,Lon Distance(km) Time Diff (sec)
1 03/26/2012 05:04:57 69.17, 102.71 03/26/2012 05:06:08 69.12, 103.01 12.91 71
2 03/26/2012 05:55:54 -68.92, -89.68 03/26/2012 05:55:40 -68.89, -89.65 2.81 14
3 03/28/2012 09:49:41 69.01, 31.75 03/28/2012 09:50:26 68.98, 31.75 3.57 45
4 03/28/2012 10:40:39 -68.83,-160.76 03/28/2012 10:39:56 -68.86,-160.76 3.24 43
5 03/30/2012 14:34:27 68.95, -39.36 03/30/2012 14:34:42 68.93, -39.37 1.92 15
6 03/30/2012 15:25:25 -68.80, 128.09 03/30/2012 15:24:12 -68.82, 128.12 2.38 73
7 04/01/2012 18:28:16 -69.32, 81.70 04/01/2012 18:29:27 -69.21, 82.28 26.07 71
8 04/01/2012 19:19:13 68.88,-110.46 04/01/2012 19:18:58 68.87,-110.50 1.99 15
9 04/03/2012 23:12:57 -69.02, 10.93 04/03/2012 23:13:45 -69.03, 10.99 3.03 48
10 04/04/2012 00:04:00 68.87, 178.36 04/04/2012 00:03:13 68.86, 178.42 2.98 47
11 04/06/2012 03:57:42 -68.93, -60.14 04/06/2012 03:58:01 -68.96, -60.16 3.31 19
12 04/06/2012 04:48:43 68.65, 107.47 04/06/2012 04:47:30 68.73, 107.19 13.89 73
13 04/08/2012 07:51:34 69.14, 61.12 04/08/2012 07:52:45 69.09, 61.31 9.67 71
14 04/08/2012 08:42:28 -68.89,-131.28 04/08/2012 08:42:17 -68.87,-131.33 3.03 11
